FW3353 Weather Reports


Display with metric or nautical units.
time (UTC)temp
F
wind
direction
speed
MPH
gust
MPH
rain 1hr
in
rain 24hr
in
rain mn
in
humidity
%
barometer
mb
20260508122004 53 136 3.0 7.0 0.00 0.00 0.00 87 1016.6
20260508121503 53 96 3.0 7.0 0.00 0.00 0.00 86 1016.6
20260508121003 53 84 4.0 7.0 0.00 0.00 0.00 86 1016.4
20260508120503 53 94 4.0 7.0 0.00 0.00 0.00 86 1016.4
20260508120004 53 87 3.0 6.0 0.00 0.00 0.00 85 1016.4
20260508115503 53 85 4.0 8.0 0.00 0.00 0.00 84 1016.4
20260508115003 53 81 5.0 8.0 0.00 0.00 0.00 84 1016.4
20260508114503 54 79 5.0 8.0 0.00 0.00 0.00 83 1016.3
20260508114003 54 85 4.0 8.0 0.00 0.00 0.00 82 1016.2
20260508113503 55 66 3.0 8.0 0.00 0.00 0.00 79 1016.3
20260508113004 55 327 2.0 4.0 0.00 0.00 0.00 76 1016.2
20260508112524 55 342 2.0 8.0 0.00 0.00 0.00 76 1016.1
20260508112003 55 334 3.0 8.0 0.00 0.00 0.00 76 1016.0
20260508111503 55 322 4.0 7.0 0.00 0.00 0.00 77 1016.0
20260508111003 55 315 3.0 6.0 0.00 0.00 0.00 76 1016.0
20260508110503 55 308 4.0 10.0 0.00 0.00 0.00 77 1016.0
20260508110004 55 308 5.0 10.0 0.00 0.00 0.00 77 1015.9
20260508105503 55 313 4.0 8.0 0.00 0.00 0.00 77 1016.0
20260508105003 56 314 4.0 8.0 0.00 0.00 0.00 78 1016.0
20260508104503 55 322 4.0 8.0 0.00 0.00 0.00 77 1016.0
20260508104003 55 325 3.0 7.0 0.00 0.00 0.00 77 1015.9
20260508103503 55 315 3.0 5.0 0.00 0.00 0.00 77 1015.9
20260508103024 55 308 3.0 5.0 0.00 0.00 0.00 77 1016.0
20260508102503 55 307 3.0 7.0 0.00 0.00 0.00 77 1016.0
20260508102003 55 305 3.0 7.0 0.00 0.00 0.00 77 1016.0
20260508101503 55 288 2.0 6.0 0.00 0.00 0.00 77 1016.0
20260508101003 55 264 1.0 4.0 0.00 0.00 0.00 77 1015.9
20260508100503 55 282 1.0 5.0 0.00 0.00 0.00 78 1015.9
20260508100003 54 293 1.0 5.0 0.00 0.00 0.00 78 1015.9
20260508095503 54 299 1.0 4.0 0.00 0.00 0.00 79 1015.9
20260508095003 54 295 1.0 4.0 0.00 0.00 0.00 80 1015.9
20260508094524 54 297 1.0 4.0 0.00 0.00 0.00 80 1015.9
20260508094003 54 302 2.0 4.0 0.00 0.00 0.00 79 1015.8
20260508093503 54 305 1.0 4.0 0.00 0.00 0.00 80 1015.9
20260508093003 54 299 1.0 4.0 0.00 0.00 0.00 80 1015.9
20260508092503 54 294 1.0 4.0 0.00 0.00 0.00 79 1015.8
20260508092003 54 305 1.0 4.0 0.00 0.00 0.00 80 1015.8
20260508091503 54 311 2.0 6.0 0.00 0.00 0.00 80 1015.7
20260508091003 54 312 2.0 6.0 0.00 0.00 0.00 80 1015.7
20260508090503 54 311 2.0 5.0 0.00 0.00 0.00 80 1015.7
20260508090003 54 300 2.0 5.0 0.00 0.00 0.00 80 1015.7
20260508085503 54 296 2.0 5.0 0.00 0.00 0.00 80 1015.7
20260508085003 54 296 2.0 4.0 0.00 0.00 0.00 80 1015.6
20260508084524 54 298 1.0 4.0 0.00 0.00 0.00 81 1015.6
20260508084003 54 291 1.0 2.0 0.00 0.00 0.00 82 1015.6
20260508083503 53 281 1.0 3.0 0.00 0.00 0.00 83 1015.6
20260508083003 53 282 1.0 3.0 0.00 0.00 0.00 83 1015.7
20260508082503 52 290 1.0 4.0 0.00 0.00 0.00 85 1015.6
20260508082003 52 297 2.0 4.0 0.00 0.00 0.00 84 1015.5
20260508081504 52 300 2.0 4.0 0.00 0.00 0.00 85 1015.4
20260508081003 52 302 2.0 4.0 0.00 0.00 0.00 86 1015.4
20260508080503 51 306 2.0 4.0 0.00 0.00 0.00 86 1015.4
20260508080024 51 305 2.0 5.0 0.00 0.00 0.00 86 1015.3
20260508075524 51 311 2.0 6.0 0.00 0.00 0.00 86 1015.3
20260508075003 50 312 3.0 6.0 0.00 0.00 0.00 87 1015.3
20260508074503 50 310 3.0 8.0 0.00 0.00 0.00 87 1015.2
20260508074024 50 306 2.0 8.0 0.00 0.00 0.00 88 1015.2
20260508073503 50 299 2.0 4.0 0.00 0.00 0.00 89 1015.1
20260508073003 50 296 2.0 4.0 0.00 0.00 0.00 89 1015.1
20260508072503 50 296 1.0 5.0 0.00 0.00 0.00 90 1015.0
20260508072003 50 299 2.0 5.0 0.00 0.00 0.00 90 1015.0
20260508071503 49 301 2.0 6.0 0.00 0.00 0.00 90 1014.9
20260508071024 49 300 2.0 6.0 0.00 0.00 0.00 90 1014.8
20260508070503 49 295 2.0 5.0 0.00 0.00 0.00 91 1014.8
20260508070024 49 300 3.0 5.0 0.00 0.00 0.00 91 1014.7
20260508065524 49 306 3.0 5.0 0.00 0.00 0.00 91 1014.6
20260508065003 49 310 2.0 4.0 0.00 0.00 0.00 91 1014.5
20260508064503 49 321 2.0 5.0 0.00 0.00 0.00 90 1014.5
20260508064003 49 323 3.0 5.0 0.00 0.00 0.00 90 1014.4
20260508063503 49 317 3.0 5.0 0.00 0.00 0.00 91 1014.4
20260508063003 49 310 2.0 5.0 0.00 0.00 0.00 91 1014.4
20260508062524 49 305 2.0 5.0 0.00 0.00 0.00 91 1014.4
20260508062024 49 303 2.0 5.0 0.00 0.00 0.00 92 1014.4
20260508061524 49 295 2.0 4.0 0.00 0.00 0.00 92 1014.4
20260508061003 49 286 1.0 4.0 0.00 0.00 0.00 92 1014.4
20260508060503 49 273 1.0 2.0 0.00 0.00 0.00 92 1014.4
20260508060003 49 271 0.0 1.0 0.00 0.00 0.00 92 1014.3
20260508055503 49 271 0.0 2.0 0.00 0.00 0.00 92 1014.3
20260508055003 49 274 1.0 4.0 0.00 0.00 0.00 92 1014.3
20260508054503 49 277 1.0 4.0 0.00 0.00 0.00 92 1014.2
20260508054003 49 281 1.0 3.0 0.00 0.00 0.00 92 1014.2
20260508053503 48 278 1.0 3.0 0.00 0.00 0.00 92 1014.2
20260508053024 48 276 1.0 3.0 0.00 0.00 0.00 92 1014.1
20260508052503 48 275 0.0 3.0 0.00 0.00 0.00 92 1014.1
20260508052024 48 275 0.0 3.0 0.00 0.00 0.00 92 1014.0
20260508051524 48 275 0.0 1.0 0.00 0.00 0.00 92 1013.9
20260508051003 48 275 0.0 2.0 0.00 0.00 0.00 92 1013.8
20260508050503 48 275 0.0 2.0 0.00 0.00 0.00 92 1013.7
20260508050003 48 275 0.0 1.0 0.00 0.00 0.00 92 1013.7
20260508045503 48 275 0.0 2.0 0.00 0.00 0.00 92 1013.7
20260508045003 48 275 0.0 2.0 0.00 0.00 0.00 91 1013.8
20260508044503 48 275 1.0 3.0 0.00 0.00 0.00 91 1013.8
20260508044003 48 275 1.0 3.0 0.00 0.00 0.00 91 1013.8
20260508043503 48 275 0.0 2.0 0.00 0.00 0.00 91 1013.7
20260508043003 48 274 0.0 2.0 0.00 0.00 0.00 91 1013.6
20260508042503 49 274 0.0 2.0 0.00 0.00 0.00 92 1013.6
20260508042003 48 0 0.0 0.0 0.00 0.00 0.00 92 1013.5
20260508041504 48 0 0.0 0.0 0.00 0.00 0.00 92 1013.5
20260508041003 48 274 0.0 1.0 0.00 0.00 0.00 92 1013.4
20260508040503 48 274 0.0 1.0 0.00 0.00 0.00 92 1013.4
20260508040024 49 0 0.0 0.0 0.00 0.00 0.00 92 1013.4
20260508035503 49 0 0.0 0.0 0.00 0.00 0.00 92 1013.4
20260508035003 49 0 0.0 0.0 0.00 0.00 0.00 91 1013.4
20260508034503 49 0 0.0 0.0 0.00 0.00 0.00 91 1013.3
20260508034003 49 0 0.0 0.0 0.00 0.00 0.00 91 1013.2
20260508033503 49 0 0.0 0.0 0.00 0.00 0.00 91 1013.2
20260508033003 49 0 0.0 0.0 0.00 0.00 0.00 91 1013.2
20260508032503 49 274 0.0 1.0 0.00 0.00 0.00 91 1013.2
20260508032003 49 274 0.0 2.0 0.00 0.00 0.00 91 1013.2
20260508031503 49 274 0.0 2.0 0.00 0.00 0.00 91 1013.3
20260508031003 49 274 0.0 1.0 0.00 0.00 0.00 91 1013.3
20260508030503 49 274 0.0 1.0 0.00 0.00 0.00 91 1013.3
20260508030003 49 274 1.0 2.0 0.00 0.00 0.00 91 1013.3
20260508025524 49 265 1.0 4.0 0.00 0.00 0.00 91 1013.3
20260508025003 49 262 2.0 4.0 0.00 0.00 0.00 91 1013.3
20260508024503 49 266 2.0 4.0 0.00 0.00 0.00 91 1013.3
20260508024024 49 273 1.0 3.0 0.00 0.00 0.00 90 1013.2
20260508023503 49 300 0.0 1.0 0.00 0.00 0.00 90 1013.1
20260508023003 49 300 0.0 1.0 0.00 0.00 0.00 90 1013.0
20260508022503 49 0 0.0 0.0 0.00 0.00 0.00 90 1013.0
20260508022003 49 0 0.0 0.0 0.00 0.00 0.00 90 1013.0
20260508021503 49 0 0.0 0.0 0.00 0.00 0.00 90 1013.0
20260508021024 49 0 0.0 0.0 0.00 0.00 0.00 90 1013.0
20260508020503 49 0 0.0 0.0 0.00 0.00 0.00 89 1013.0
20260508020003 50 0 0.0 0.0 0.00 0.00 0.00 89 1012.9
20260508015503 50 0 0.0 0.0 0.00 0.00 0.00 89 1012.9
20260508015003 50 308 0.0 2.0 0.00 0.00 0.00 89 1012.9
20260508014504 50 308 0.0 2.0 0.00 0.00 0.00 89 1012.9
20260508014003 50 307 1.0 4.0 0.00 0.00 0.00 88 1012.8
20260508013524 50 301 2.0 4.0 0.00 0.00 0.00 88 1012.8
20260508013003 50 293 2.0 4.0 0.00 0.00 0.00 88 1012.9
20260508012524 50 288 1.0 4.0 0.00 0.00 0.00 87 1012.9
20260508012003 50 281 2.0 4.0 0.00 0.00 0.00 87 1012.9
20260508011524 50 280 2.0 4.0 0.00 0.00 0.00 87 1012.9
20260508011003 50 278 2.0 4.0 0.00 0.00 0.00 87 1012.9
20260508010503 50 275 1.0 3.0 0.00 0.00 0.00 87 1012.9
20260508010024 50 275 1.0 3.0 0.00 0.00 0.00 86 1012.9
20260508005503 50 271 1.0 4.0 0.00 0.00 0.00 86 1012.9
20260508005024 50 264 1.0 5.0 0.00 0.00 0.00 86 1013.0
20260508004503 50 264 2.0 5.0 0.00 0.00 0.00 86 1012.9
20260508004003 50 269 1.0 4.0 0.00 0.00 0.00 85 1012.9
20260508003503 50 272 1.0 3.0 0.00 0.00 0.00 85 1012.9
20260508003004 50 267 2.0 7.0 0.00 0.00 0.00 85 1012.9
20260508002503 50 267 2.0 7.0 0.00 0.00 0.00 85 1012.9
20260508002003 50 263 2.0 5.0 0.00 0.00 0.00 84 1012.9
20260508001503 51 259 2.0 5.0 0.00 0.00 0.00 84 1012.9
20260508001003 51 261 2.0 6.0 0.00 0.00 0.00 84 1012.8
20260508000524 51 260 3.0 6.0 0.00 0.00 0.00 84 1012.8
20260508000024 51 259 2.0 5.0 0.00 0.00 0.00 84 1012.8
20260507235524 51 252 2.0 5.0 0.00 0.00 0.00 84 1012.8
20260507235003 51 251 2.0 5.0 0.00 0.00 0.00 83 1012.7
20260507234503 51 249 2.0 5.0 0.00 0.00 0.00 83 1012.7
20260507234003 51 247 2.0 5.0 0.00 0.00 0.00 83 1012.7
20260507233503 51 252 2.0 5.0 0.00 0.00 0.00 84 1012.7
20260507233003 51 261 1.0 3.0 0.00 0.00 0.00 84 1012.6
20260507232524 51 266 1.0 3.0 0.00 0.00 0.00 84 1012.5
20260507232003 51 270 1.0 2.0 0.00 0.00 0.00 84 1012.4
20260507231524 51 271 1.0 2.0 0.00 0.00 0.00 84 1012.3
20260507231003 51 271 1.0 2.0 0.00 0.00 0.00 84 1012.3
20260507230524 51 271 0.0 2.0 0.00 0.00 0.00 84 1012.3
20260507230024 51 271 0.0 1.0 0.00 0.00 0.00 84 1012.2
20260507225503 51 0 0.0 0.0 0.00 0.00 0.00 84 1012.2
20260507225003 51 0 0.0 0.0 0.00 0.00 0.00 84 1012.3
20260507224504 52 0 0.0 0.0 0.00 0.00 0.00 84 1012.2
20260507224003 52 0 0.0 0.0 0.00 0.00 0.00 84 1012.1
20260507223503 52 0 0.0 0.0 0.00 0.00 0.00 84 1012.1
20260507223024 52 0 0.0 0.0 0.00 0.00 0.00 84 1012.1
20260507222503 52 0 0.0 0.0 0.00 0.00 0.00 84 1012.0
20260507222003 52 0 0.0 0.0 0.00 0.00 0.00 84 1012.0
20260507221503 52 0 0.0 0.0 0.00 0.00 0.00 83 1012.1
20260507221003 52 0 0.0 0.0 0.00 0.00 0.00 83 1012.1
20260507220503 52 0 0.0 0.0 0.00 0.00 0.00 83 1012.1
20260507220024 52 0 0.0 0.0 0.00 0.00 0.00 82 1012.1
20260507215503 52 0 0.0 0.0 0.00 0.00 0.00 83 1012.1
20260507215003 52 0 0.0 0.0 0.00 0.00 0.00 82 1012.0
20260507214503 53 0 0.0 0.0 0.00 0.00 0.00 82 1012.0
20260507214003 53 0 0.0 0.0 0.00 0.00 0.00 82 1012.0
20260507213524 53 0 0.0 0.0 0.00 0.00 0.00 82 1011.9
20260507213024 53 0 0.0 0.0 0.00 0.00 0.00 82 1011.9
20260507212503 53 0 0.0 0.0 0.00 0.00 0.00 82 1011.8
20260507212024 53 273 0.0 1.0 0.00 0.00 0.00 81 1011.8
20260507211503 53 273 0.0 1.0 0.00 0.00 0.00 81 1011.8
20260507211003 53 273 0.0 1.0 0.00 0.00 0.00 81 1011.8
20260507210503 54 273 0.0 1.0 0.00 0.00 0.00 81 1011.8
20260507210004 54 273 0.0 1.0 0.00 0.00 0.00 80 1011.8
20260507205503 54 272 1.0 3.0 0.00 0.00 0.00 80 1011.7
20260507205003 54 273 1.0 3.0 0.00 0.00 0.00 80 1011.6
20260507204503 54 280 1.0 4.0 0.00 0.00 0.00 79 1011.6
20260507204003 54 285 1.0 4.0 0.00 0.00 0.00 79 1011.5
20260507203503 54 275 2.0 5.0 0.00 0.00 0.00 79 1011.5
20260507203003 54 264 2.0 5.0 0.00 0.00 0.00 78 1011.4
20260507202503 54 254 2.0 5.0 0.00 0.00 0.00 77 1011.4
20260507202024 54 241 3.0 8.0 0.00 0.00 0.00 76 1011.3
20260507201503 55 231 4.0 12.0 0.00 0.00 0.00 76 1011.2
20260507201003 55 232 3.0 12.0 0.00 0.00 0.00 76 1011.1
20260507200503 55 241 1.0 5.0 0.00 0.00 0.00 76 1011.0
20260507200003 55 242 1.0 2.0 0.00 0.00 0.00 76 1010.9
20260507195503 55 242 1.0 2.0 0.00 0.00 0.00 76 1010.8
20260507195003 55 241 1.0 2.0 0.00 0.00 0.00 76 1010.9
20260507194503 55 241 1.0 4.0 0.00 0.00 0.00 77 1010.9
20260507194003 55 243 2.0 5.0 0.00 0.00 0.00 77 1010.8
20260507193503 55 245 1.0 5.0 0.00 0.00 0.00 78 1010.8
20260507193003 56 229 2.0 5.0 0.00 0.00 0.00 79 1010.7
20260507192503 56 214 2.0 5.0 0.00 0.00 0.00 80 1010.7
20260507192003 56 199 2.0 5.0 0.00 0.00 0.00 80 1010.7
20260507191524 56 203 2.0 5.0 0.00 0.00 0.00 80 1010.7
20260507191024 56 214 2.0 5.0 0.00 0.00 0.00 79 1010.7
20260507190503 56 239 1.0 3.0 0.00 0.00 0.00 79 1010.7
20260507190004 56 233 1.0 3.0 0.00 0.00 0.00 78 1010.6
20260507185503 57 210 2.0 5.0 0.00 0.00 0.00 78 1010.6
20260507185003 57 212 2.0 5.0 0.00 0.00 0.00 78 1010.5
20260507184504 57 208 2.0 4.0 0.00 0.00 0.00 78 1010.5
20260507184003 57 224 2.0 4.0 0.00 0.00 0.00 79 1010.5
20260507183503 56 204 2.0 4.0 0.00 0.00 0.00 79 1010.4
20260507183003 56 208 2.0 4.0 0.00 0.00 0.00 78 1010.4
20260507182503 56 236 2.0 4.0 0.00 0.00 0.00 79 1010.4
20260507182003 56 226 2.0 4.0 0.00 0.00 0.00 79 1010.4
20260507181503 56 207 2.0 4.0 0.00 0.00 0.00 81 1010.4
20260507181003 56 162 2.0 4.0 0.00 0.00 0.00 80 1010.5
20260507180503 56 84 2.0 4.0 0.00 0.00 0.00 79 1010.5
20260507180003 55 84 2.0 4.0 0.00 0.00 0.00 80 1010.5
20260507175503 55 73 3.0 4.0 0.00 0.00 0.00 80 1010.4
20260507175003 55 97 2.0 5.0 0.00 0.00 0.00 80 1010.5
20260507174503 55 146 2.0 5.0 0.00 0.00 0.00 79 1010.5
20260507174024 55 295 1.0 4.0 0.00 0.00 0.00 79 1010.5
20260507173524 55 296 1.0 3.0 0.00 0.00 0.00 79 1010.7
20260507173024 55 289 0.0 3.0 0.00 0.00 0.00 79 1010.6
20260507172503 55 0 0.0 0.0 0.00 0.00 0.00 79 1010.6
20260507172003 55 285 0.0 2.0 0.00 0.00 0.00 81 1010.7
20260507171503 55 281 0.0 2.0 0.00 0.00 0.00 82 1010.7
20260507171003 55 277 0.0 1.0 0.00 0.00 0.00 81 1010.7
20260507170503 54 276 0.0 1.0 0.00 0.00 0.00 81 1010.6
20260507170003 54 271 1.0 6.0 0.00 0.00 0.00 81 1010.7
20260507165503 54 258 2.0 6.0 0.00 0.00 0.00 82 1010.8
20260507165024 55 224 3.0 8.0 0.00 0.00 0.00 84 1010.7
20260507164503 55 214 4.0 8.0 0.00 0.00 0.00 84 1010.8
20260507164003 56 202 3.0 7.0 0.00 0.00 0.00 82 1010.7
20260507163503 56 191 4.0 8.0 0.00 0.00 0.00 82 1010.6
20260507163003 56 181 4.0 9.0 0.00 0.00 0.00 81 1010.5
20260507162503 56 162 4.0 9.0 0.00 0.00 0.00 80 1010.6
20260507162003 57 154 5.0 10.0 0.00 0.00 0.00 79 1010.5
20260507161524 57 158 5.0 11.0 0.00 0.00 0.00 78 1010.5
20260507161003 57 180 5.0 11.0 0.00 0.00 0.00 77 1010.6
20260507160503 58 201 5.0 10.0 0.00 0.00 0.00 77 1010.5
20260507160003 58 209 4.0 9.0 0.00 0.00 0.00 77 1010.6
20260507155503 57 207 4.0 8.0 0.00 0.00 0.00 77 1010.6
20260507155003 56 199 4.0 8.0 0.00 0.00 0.00 77 1010.6
20260507154503 56 193 3.0 8.0 0.00 0.00 0.00 78 1010.7
20260507154024 56 185 4.0 8.0 0.00 0.00 0.00 79 1010.7
20260507153504 55 176 4.0 11.0 0.00 0.00 0.00 80 1010.7
20260507153003 55 187 4.0 11.0 0.00 0.00 0.00 80 1010.7
20260507152503 55 205 4.0 9.0 0.00 0.00 0.00 80 1010.7
20260507152003 55 195 3.0 9.0 0.00 0.00 0.00 81 1010.8
20260507151503 55 166 3.0 8.0 0.00 0.00 0.00 82 1010.8
20260507151024 55 167 4.0 9.0 0.00 0.00 0.00 82 1010.9
20260507150524 55 178 4.0 9.0 0.00 0.00 0.00 82 1010.9
20260507150024 55 172 5.0 11.0 0.00 0.00 0.00 82 1011.0
20260507145503 55 164 5.0 12.0 0.00 0.00 0.00 82 1010.9
20260507145003 55 169 5.0 12.0 0.00 0.00 0.00 82 1011.0
20260507144503 55 168 5.0 12.0 0.00 0.00 0.00 82 1011.0
20260507144003 55 160 5.0 12.0 0.00 0.00 0.00 82 1011.1
20260507143503 55 150 5.0 11.0 0.00 0.00 0.00 81 1011.2
20260507143025 55 159 5.0 11.0 0.00 0.00 0.00 81 1011.1
20260507142524 55 167 5.0 11.0 0.00 0.00 0.00 81 1011.2
20260507142003 55 147 5.0 12.0 0.00 0.00 0.00 81 1011.3
20260507141524 54 141 5.0 12.0 0.00 0.00 0.00 81 1011.3
20260507141024 54 137 5.0 12.0 0.00 0.00 0.00 81 1011.4
20260507140503 54 155 5.0 12.0 0.00 0.00 0.00 81 1011.4
20260507140003 54 162 5.0 12.0 0.00 0.00 0.00 81 1011.4
20260507135524 54 151 6.0 14.0 0.00 0.00 0.00 81 1011.5
20260507135003 54 152 6.0 14.0 0.00 0.00 0.00 80 1011.4
20260507134503 54 150 6.0 15.0 0.00 0.00 0.00 79 1011.5
20260507134004 54 148 6.0 15.0 0.00 0.00 0.00 79 1011.4
20260507133503 54 144 6.0 15.0 0.00 0.00 0.00 78 1011.4
20260507133003 55 141 6.0 15.0 0.00 0.00 0.00 76 1011.3
20260507132503 55 141 6.0 13.0 0.00 0.00 0.00 75 1011.4
20260507132003 55 141 7.0 13.0 0.00 0.00 0.00 74 1011.4
20260507131503 55 136 7.0 13.0 0.00 0.00 0.00 75 1011.5
20260507131024 55 135 6.0 13.0 0.00 0.00 0.00 74 1011.5
20260507130503 56 148 6.0 15.0 0.00 0.00 0.00 73 1011.5
20260507130004 56 151 7.0 16.0 0.00 0.00 0.00 73 1011.5
20260507125503 55 140 8.0 16.0 0.00 0.00 0.00 72 1011.5
20260507125004 56 132 9.0 15.0 0.00 0.00 0.00 72 1011.6
20260507124504 56 126 8.0 15.0 0.00 0.00 0.00 72 1011.6
20260507124003 57 132 6.0 15.0 0.00 0.00 0.00 67 1011.6
20260507123503 56 144 6.0 13.0 0.00 0.00 0.00 71 1011.6
20260507123003 56 140 6.0 13.0 0.00 0.00 0.00 70 1011.7
20260507122503 56 159 6.0 13.0 0.00 0.00 0.00 71 1011.7